Cloud_Cover
0 0 0 0 0 0 0 0 0 0 0 0 5 2 2 5 0 2 0 0 0 8 0 4 0 0 0 0 0 2 0 7 0 0 0 0 12 97 51 0 0 0 0 14 29 2 0 1 6
4 0 0 0 0 0 0 0 0 0 0 2 4 18 2 1 5 4 2 0 0 32 5 29 0 0 0 0 0 0 0 1 0 0 0 0 42 100 13 0 0 0 0 0 0 0 0 0 13
2 4 87 81 28 5 20 4 0 0 5 4 5 5 10 5 2 13 7 2 0 38 2 18 0 0 0 0 0 0 0 0 0 0 0 0 31 66 5 0 0 0 0 0 0 12 0 0 1
53 25 67 83 100 45 48 2 0 1 4 5 5 8 5 22 5 1 11 14 9 36 2 4 0 0 0 0 0 0 0 0 0 0 0 0 0 0 2 0 0 0 0 2 100 95 3 0 0
1 0 2 0 1 0 0 0 0 4 5 5 11 5 4 5 55 28 2 8 43 54 3 19 0 0 0 0 0 0 0 0 0 0 0 8 36 52 23 0 0 0 0 1 24 1 0 0 0
0 0 0 0 0 0 0 0 0 0 5 5 5 5 5 5 5 17 82 6 8 34 11 8 0 0 0 0 0 0 0 34 0 0 1 0 2 20 17 0 0 0 0 0 1 0 0 0 8
0 0 0 0 0 0 0 0 0 0 0 1 5 4 25 67 5 3 99 33 24 5 4 4 5 5 5 4 3 0 0 10 0 0 1 4 0 11 36 6 0 0 0 0 0 0 6 36 0
0 0 0 0 0 0 0 0 0 0 0 0 0 0 2 76 40 6 54 75 100 65 100 100 45 5 5 13 25 6 5 2 1 0 0 1 4 26 100 20 2 0 0 2 5 5 0 0 0
0 0 0 0 0 0 0 0 0 0 0 0 0 0 0 0 4 22 22 100 100 100 100 100 100 100 100 77 100 100 100 92 9 5 5 5 5 41 58 5 5 5 5 5 67 97 3 0 0
0 0 0 0 0 0 0 0 0 0 0 0 0 0 0 0 0 51 100 100 100 100 99 100 100 100 100 100 100 100 100 96 99 99 22 5 5 22 79 5 5 5 24 60 100 29 5 4 1
0 0 0 0 0 0 0 0 0 0 0 0 0 0 0 0 0 1 100 65 25 100 100 100 100 100 100 100 100 100 100 100 100 100 100 45 7 52 100 45 24 14 6 100 98 59 5 5 5
0 0 0 0 0 0 0 0 0 0 0 0 0 0 0 0 0 0 91 39 100 100 100 100 100 100 100 100 100 100 100 100 100 100 100 71 68 70 72 86 86 100 100 100 100 76 5 5 64
0 0 0 0 0 0 0 0 0 0 0 0 3 0 0 0 0 1 9 96 100 100 100 100 100 100 100 100 100 100 100 100 100 100 100 93 99 100 25 74 100 100 100 100 100 100 12 5 5
0 0 0 0 0 0 0 0 0 0 0 4 3 2 0 0 53 88 69 97 100 100 100 100 100 100 100 100 100 100 100 100 100 100 100 100 100 82 58 29 72 89 100 100 95 100 100 86 36
0 0 0 0 0 0 0 0 0 0 0 1 3 1 7 0 100 96 99 94 100 100 100 100 100 100 100 100 100 100 100 100 100 100 100 100 100 100 52 100 48 12 16 74 83 97 100 100 100
0 0 0 0 0 0 0 0 0 0 0 0 3 5 5 5 74 10 10 0 98 100 100 100 100 100 100 100 100 100 100 100 100 100 100 100 100 100 100 100 100 37 33 44 68 100 100 100 100
0 0 0 0 0 0 0 0 0 0 0 1 0 0 2 0 11 72 4 83 100 100 100 100 100 100 100 100 100 100 100 100 100 100 100 100 100 100 100 100 100 99 99 91 65 100 100 100 100
0 0 0 0 0 0 0 0 0 0 0 0 0 0 0 0 10 100 14 100 100 100 100 100 100 100 100 100 100 100 100 100 100 100 100 100 100 100 100 99 100 75 86 89 98 100 97 100 100
0 0 0 0 0 0 0 0 0 0 0 3 0 0 0 0 0 100 19 97 100 100 100 100 100 100 100 100 100 100 100 100 100 100 72 100 100 100 100 100 100 100 100 100 100 100 100 100 100
0 0 0 0 0 0 0 0 0 0 5 5 8 2 10 3 0 0 5 22 74 100 100 100 100 100 100 100 100 100 100 100 100 100 100 100 100 100 100 100 100 100 100 100 100 100 100 100 100
0 0 0 0 0 0 0 0 0 0 5 3 6 100 92 61 2 0 0 20 4 100 98 100 100 100 100 100 100 100 100 100 100 100 100 100 100 100 100 100 100 100 100 100 100 100 100 100 100
0 0 0 0 0 0 0 1 0 0 0 4 44 100 100 100 95 24 0 4 4 87 100 100 100 100 100 100 100 100 100 100 100 100 100 100 100 100 100 100 100 100 100 100 100 100 100 100 100
0 0 0 0 0 1 0 0 0 0 1 22 99 100 100 100 100 89 0 3 5 4 99 100 100 100 100 100 100 100 100 100 100 100 100 100 100 100 100 100 100 100 100 100 100 100 100 100 100
0 0 0 4 0 4 0 0 0 0 2 32 60 100 100 100 100 100 27 5 62 76 94 100 100 100 100 100 100 100 100 100 100 100 100 100 100 100 100 100 100 100 100 100 100 100 100 100 100
0 0 3 5 5 0 0 0 0 0 5 63 100 100 100 100 100 100 100 100 100 100 100 98 90 100 100 100 100 100 100 100 100 100 100 100 100 100 100 100 100 100 100 100 100 100 100 100 100
0 0 4 5 5 4 0 0 0 0 5 60 83 100 100 80 92 100 100 100 100 100 100 100 100 100 94 100 100 100 100 100 100 100 100 100 100 100 100 100 100 100 100 100 100 100 100 100 100
4 0 5 6 5 6 2 0 0 0 0 32 87 100 100 100 100 100 100 100 100 100 100 100 100 100 100 100 100 100 81 100 100 100 100 100 100 100 100 100 100 100 100 100 100 100 100 100 100
0 5 5 72 5 5 5 0 0 0 0 15 82 99 98 100 100 100 100 100 100 100 100 100 100 100 100 100 100 96 100 100 100 100 100 100 100 100 100 100 100 100 100 100 100 100 100 100 100
6 5 18 7 14 5 5 1 0 0 0 14 69 94 90 100 100 100 100 100 100 100 100 100 100 92 100 100 100 100 100 100 100 100 100 100 100 100 100 100 100 100 100 100 100 100 100 100 100
68 5 28 5 5 5 5 5 0 0 0 0 0 35 76 93 100 100 100 100 100 100 100 100 100 100 100 100 100 100 100 100 100 100 100 100 100 100 100 100 100 100 94 100 100 100 100 100 100